Weather History for Orr, MN

Change the Weather History Date:

Wednesday, October 24, 2012

  Actual Average Record
Temperature  
Mean Temperature 45 °F -  
Max Temperature 51 °F 44 °F 66 °F (1998)
Min Temperature 39 °F 29 °F 17 °F (2006)
Degree Days  
Heating Degree Days 20    
Moisture  
Dew Point 44 °F    
Average Humidity 89    
Maximum Humidity 94    
Minimum Humidity 87    
Precipitation  
Precipitation 0.01 in - - ()
Sea Level Pressure  
Sea Level Pressure 29.82 in    
Wind  
Wind Speed 4 mph (WNW)    
Max Wind Speed 15 mph    
Max Gust Speed 22 mph    
Visibility 8 miles    
Events Rain    
Averages and records for this station are not official NWS values.
T = Trace of Precipitation, MM = Missing Value Source: NWS Daily Summary

Daily Weather History Graph

Daily Weather History Graph

Search for Another Location

Airport:

Trip Planner

Search our weather history database for the weather conditions in past years. The results will help you decide how hot, cold, wet, or windy it might be!

Date:

Astronomy

Oct. 24, 2012 Rise Set
Actual Time 7:44 AM CDT 6:05 PM CDT
Civil Twilight 7:13 AM CDT 6:37 PM CDT
Nautical Twilight 6:36 AM CDT 7:13 PM CDT
Astronomical Twilight 6:00 AM CDT 7:49 PM CDT
Moon 3:39 PM CDT (10/24) 2:19 AM CDT (10/24)
Length of Visible Light 11h 24m
Length of Day
10h 20m
Waxing Gibbous, 76% of the Moon is Illuminated
Oct 24
Waxing Gibbous
Oct 29
Full
Nov 6
Last Quarter
Nov 13
New
Nov 20
First Quarter

Hourly Weather History & Observations

Time (CDT) Temp. Windchill Dew Point Humidity Pressure Visibility Wind Dir Wind Speed Gust Speed Precip Events Conditions
12:13 AM 50.0 °F - 48.2 °F 94% 29.73 in 4.0 mi South 10.4 mph - N/A   Mostly Cloudy
12:33 AM 51.8 °F - 48.2 °F 88% 29.72 in 3.0 mi South 8.1 mph - N/A   Drizzle
12:53 AM 51.8 °F - 48.2 °F 88% 29.72 in 7.0 mi South 6.9 mph - N/A   Mostly Cloudy
1:13 AM 51.8 °F - 48.2 °F 88% 29.72 in 4.0 mi South 3.5 mph - N/A   Mostly Cloudy
1:33 AM 51.8 °F - 48.2 °F 88% 29.72 in 5.0 mi SSW 5.8 mph - N/A   Mostly Cloudy
1:53 AM 51.8 °F - 48.2 °F 88% 29.73 in 7.0 mi SSW 3.5 mph - N/A   Mostly Cloudy
2:13 AM 51.8 °F - 48.2 °F 88% 29.73 in 7.0 mi SSW 4.6 mph - N/A   Mostly Cloudy
2:33 AM 51.8 °F - 48.2 °F 88% 29.75 in 5.0 mi Calm Calm - N/A   Overcast
2:53 AM 51.8 °F - 48.2 °F 88% 29.75 in 5.0 mi Calm Calm - N/A   Overcast
3:13 AM 51.8 °F - 48.2 °F 88% 29.75 in 7.0 mi Calm Calm - N/A   Mostly Cloudy
3:33 AM 51.8 °F - 48.2 °F 88% 29.76 in 7.0 mi Calm Calm - N/A   Mostly Cloudy
3:53 AM 51.8 °F - 48.2 °F 88% 29.76 in 7.0 mi Calm Calm - N/A   Scattered Clouds
4:13 AM 51.8 °F - 48.2 °F 88% 29.77 in 5.0 mi Calm Calm - N/A   Mostly Cloudy
4:33 AM 51.8 °F - 48.2 °F 88% 29.77 in 5.0 mi Calm Calm - N/A   Mostly Cloudy
4:53 AM 51.8 °F - 48.2 °F 88% 29.78 in 7.0 mi West 3.5 mph - N/A   Scattered Clouds
5:13 AM 51.8 °F - 48.2 °F 88% 29.77 in 5.0 mi Calm Calm - N/A   Scattered Clouds
5:33 AM 51.8 °F - 48.2 °F 88% 29.77 in 7.0 mi Calm Calm - N/A   Scattered Clouds
5:53 AM 51.8 °F - 48.2 °F 88% 29.77 in 10.0 mi Calm Calm - N/A   Mostly Cloudy
6:13 AM 51.8 °F - 48.2 °F 88% 29.77 in 10.0 mi Calm Calm - N/A   Overcast
6:33 AM 50.0 °F - 48.2 °F 94% 29.80 in 10.0 mi West 3.5 mph - N/A   Overcast
6:53 AM 50.0 °F - 48.2 °F 94% 29.81 in 10.0 mi Calm Calm - N/A   Mostly Cloudy
7:13 AM 48.2 °F - 46.4 °F 93% 29.82 in 7.0 mi West 5.8 mph - N/A   Scattered Clouds
7:33 AM 48.2 °F - 46.4 °F 93% 29.84 in 10.0 mi WNW 10.4 mph 16.1 mph N/A   Mostly Cloudy
7:53 AM 48.2 °F - 44.6 °F 87% 29.84 in 10.0 mi West 6.9 mph - N/A   Overcast
8:13 AM 48.2 °F - 44.6 °F 87% 29.82 in 10.0 mi Calm Calm - N/A   Overcast
8:53 AM 48.2 °F - 44.6 °F 87% 29.85 in 10.0 mi Calm Calm - N/A   Overcast
9:13 AM 48.2 °F - 44.6 °F 87% 29.85 in 10.0 mi Calm Calm - N/A   Overcast
9:33 AM 48.2 °F - 44.6 °F 87% 29.86 in 10.0 mi Calm Calm - N/A   Overcast
9:53 AM 48.2 °F - 44.6 °F 87% 29.87 in 7.0 mi Calm Calm - N/A   Overcast
10:13 AM 48.2 °F - 44.6 °F 87% 29.88 in 7.0 mi West 3.5 mph - N/A   Mostly Cloudy
10:33 AM 48.2 °F - 44.6 °F 87% 29.88 in 10.0 mi West 3.5 mph - N/A   Mostly Cloudy
10:53 AM 48.2 °F - 44.6 °F 87% 29.87 in 10.0 mi West 3.5 mph - N/A   Scattered Clouds
11:13 AM 48.2 °F - 44.6 °F 87% 29.87 in 7.0 mi Calm Calm - N/A   Scattered Clouds
11:33 AM 48.2 °F - 44.6 °F 87% 29.85 in 7.0 mi WNW 5.8 mph - N/A   Scattered Clouds
11:53 AM 48.2 °F - 44.6 °F 87% 29.85 in 10.0 mi Calm Calm - N/A   Clear
12:13 PM 48.2 °F - 44.6 °F 87% 29.85 in 10.0 mi WNW 4.6 mph - N/A   Scattered Clouds
12:33 PM 48.2 °F - 44.6 °F 87% 29.84 in 10.0 mi Calm Calm - N/A   Scattered Clouds
12:53 PM 48.2 °F - 44.6 °F 87% 29.84 in 10.0 mi Calm Calm - N/A   Clear
1:13 PM 48.2 °F - 44.6 °F 87% 29.85 in 10.0 mi Calm Calm - N/A   Clear
1:33 PM 48.2 °F - 44.6 °F 87% 29.85 in 10.0 mi Calm Calm - N/A   Scattered Clouds
1:53 PM 48.2 °F - 44.6 °F 87% 29.84 in 10.0 mi NW 3.5 mph - N/A   Scattered Clouds
2:13 PM 48.2 °F - 44.6 °F 87% 29.84 in 10.0 mi NW 3.5 mph - N/A   Mostly Cloudy
2:33 PM 48.2 °F - 44.6 °F 87% 29.85 in 10.0 mi Calm Calm - N/A Rain Rain
2:53 PM 48.2 °F - 44.6 °F 87% 29.84 in 10.0 mi NW 5.8 mph - N/A Rain Rain
3:13 PM 46.4 °F 45.2 °F 44.6 °F 93% 29.85 in 10.0 mi WNW 3.5 mph - 0.01 in   Drizzle
3:33 PM 46.4 °F 44.3 °F 44.6 °F 93% 29.85 in 7.0 mi WNW 4.6 mph - 0.01 in Rain Light Rain
4:13 PM 46.4 °F 41.9 °F 42.8 °F 87% 29.85 in 2.5 mi WNW 9.2 mph - N/A   Overcast
4:33 PM 44.6 °F 39.2 °F 42.8 °F 93% 29.84 in 4.0 mi NW 10.4 mph 16.1 mph N/A   Overcast
4:53 PM 44.6 °F 39.7 °F 42.8 °F 93% 29.85 in 4.0 mi NW 9.2 mph - N/A   Overcast
5:33 PM 44.6 °F 40.7 °F 42.8 °F 93% 29.85 in 7.0 mi NW 6.9 mph - N/A   Overcast
5:53 PM 44.6 °F 40.7 °F 41.0 °F 87% 29.86 in 10.0 mi NW 6.9 mph - N/A   Overcast
6:13 PM 42.8 °F 39.3 °F 41.0 °F 93% 29.86 in 10.0 mi NW 5.8 mph - N/A   Mostly Cloudy
6:33 PM 42.8 °F 38.0 °F 39.2 °F 87% 29.86 in 10.0 mi NW 8.1 mph - N/A   Overcast
6:53 PM 42.8 °F 40.1 °F 39.2 °F 87% 29.87 in 10.0 mi NW 4.6 mph - N/A   Overcast
7:33 PM 42.8 °F - 39.2 °F 87% 29.85 in 10.0 mi Calm Calm - N/A   Mostly Cloudy
8:13 PM 42.8 °F - 39.2 °F 87% 29.84 in 10.0 mi Calm Calm - N/A   Scattered Clouds
8:33 PM 41.0 °F 38.0 °F 39.2 °F 93% 29.84 in 10.0 mi NW 4.6 mph - N/A   Scattered Clouds
8:53 PM 41.0 °F 37.1 °F 37.4 °F 87% 29.84 in 10.0 mi NW 5.8 mph - N/A   Scattered Clouds
9:13 PM 41.0 °F 39.0 °F 37.4 °F 87% 29.84 in 10.0 mi NW 3.5 mph - N/A   Scattered Clouds
9:53 PM 41.0 °F 38.0 °F 37.4 °F 87% 29.86 in 10.0 mi NW 4.6 mph - N/A   Scattered Clouds
10:13 PM 39.2 °F 33.6 °F 37.4 °F 93% 29.86 in 7.0 mi NW 8.1 mph - N/A   Scattered Clouds
10:33 PM 39.2 °F 31.2 °F 37.4 °F 93% 29.87 in 10.0 mi NW 13.8 mph 18.4 mph N/A   Drizzle
10:53 PM 39.2 °F 32.5 °F 35.6 °F 87% 29.87 in 10.0 mi NW 10.4 mph - N/A   Drizzle
11:13 PM 39.2 °F 31.2 °F 35.6 °F 87% 29.88 in 10.0 mi NW 13.8 mph 20.7 mph N/A   Drizzle
11:33 PM 39.2 °F 30.8 °F 35.6 °F 87% 29.88 in 10.0 mi NW 15.0 mph 20.7 mph N/A   Drizzle
11:53 PM 39.2 °F 31.2 °F 35.6 °F 87% 29.87 in 10.0 mi NW 13.8 mph 21.9 mph N/A   Light Drizzle